TimeMDT,TemperatureF,Dew PointF,Humidity,Sea Level PressureIn,VisibilityMPH,Wind Direction,Wind SpeedMPH,Gust SpeedMPH,PrecipitationIn,Events,Conditions,WindDirDegrees,DateUTC
12:15 AM,73.4,42.8,33,29.78,10.0,SW,8.1,-,N/A,,Clear,230,2013-07-16 06:15:00
12:55 AM,71.6,42.8,35,29.78,10.0,West,8.1,-,N/A,,Clear,260,2013-07-16 06:55:00
1:15 AM,71.6,42.8,35,29.79,10.0,West,8.1,-,N/A,,Clear,280,2013-07-16 07:15:00
1:35 AM,71.6,41.0,33,29.79,10.0,West,10.4,-,N/A,,Clear,280,2013-07-16 07:35:00
1:55 AM,73.4,41.0,31,29.79,10.0,WNW,11.5,-,N/A,,Clear,290,2013-07-16 07:55:00
2:15 AM,71.6,41.0,33,29.79,10.0,West,11.5,-,N/A,,Clear,280,2013-07-16 08:15:00
2:35 AM,71.6,41.0,33,29.79,10.0,WNW,9.2,-,N/A,,Clear,290,2013-07-16 08:35:00
2:55 AM,71.6,39.2,31,29.79,10.0,WNW,8.1,-,N/A,,Clear,290,2013-07-16 08:55:00
3:15 AM,69.8,39.2,33,29.80,10.0,WNW,8.1,-,N/A,,Clear,290,2013-07-16 09:15:00
3:35 AM,68.0,39.2,35,29.80,10.0,WNW,5.8,-,N/A,,Clear,290,2013-07-16 09:35:00
3:55 AM,66.2,39.2,37,29.79,10.0,WNW,10.4,-,N/A,,Clear,300,2013-07-16 09:55:00
4:15 AM,66.2,39.2,37,29.80,10.0,WNW,6.9,-,N/A,,Clear,290,2013-07-16 10:15:00
4:35 AM,66.2,39.2,37,29.80,10.0,West,3.5,-,N/A,,Clear,280,2013-07-16 10:35:00
4:55 AM,66.2,39.2,37,29.81,10.0,WSW,4.6,-,N/A,,Clear,250,2013-07-16 10:55:00
5:15 AM,66.2,39.2,37,29.82,10.0,WSW,4.6,-,N/A,,Clear,240,2013-07-16 11:15:00
5:35 AM,66.2,39.2,37,29.81,10.0,WNW,6.9,-,N/A,,Clear,290,2013-07-16 11:35:00
5:55 AM,64.4,41.0,42,29.82,10.0,NE,8.1,-,N/A,,Clear,50,2013-07-16 11:55:00
6:15 AM,60.8,42.8,52,29.83,10.0,East,4.6,-,N/A,,Clear,80,2013-07-16 12:15:00
6:35 AM,60.8,42.8,52,29.83,10.0,SSE,3.5,-,N/A,,Clear,150,2013-07-16 12:35:00
6:55 AM,60.8,44.6,55,29.83,10.0,Calm,Calm,-,N/A,,Clear,0,2013-07-16 12:55:00
7:15 AM,62.6,44.6,52,29.84,10.0,Calm,Calm,-,N/A,,Clear,0,2013-07-16 13:15:00
7:35 AM,62.6,46.4,55,29.84,10.0,Calm,Calm,-,N/A,,Clear,0,2013-07-16 13:35:00
7:55 AM,64.4,46.4,52,29.84,10.0,Calm,Calm,-,N/A,,Clear,0,2013-07-16 13:55:00
8:15 AM,66.2,46.4,49,29.84,10.0,ESE,3.5,-,N/A,,Clear,120,2013-07-16 14:15:00
8:35 AM,69.8,44.6,40,29.85,10.0,Calm,Calm,-,N/A,,Clear,0,2013-07-16 14:35:00
8:55 AM,71.6,44.6,38,29.85,10.0,Calm,Calm,-,N/A,,Clear,0,2013-07-16 14:55:00
9:15 AM,71.6,44.6,38,29.86,10.0,Calm,Calm,-,N/A,,Clear,0,2013-07-16 15:15:00
9:35 AM,75.2,44.6,34,29.85,10.0,Calm,Calm,-,N/A,,Clear,0,2013-07-16 15:35:00
9:55 AM,75.2,46.4,36,29.86,10.0,WNW,3.5,-,N/A,,Clear,290,2013-07-16 15:55:00
10:15 AM,77.0,46.4,34,29.85,10.0,Calm,Calm,-,N/A,,Clear,0,2013-07-16 16:15:00
10:35 AM,78.8,48.2,34,29.86,10.0,WSW,4.6,-,N/A,,Clear,250,2013-07-16 16:35:00
10:55 AM,80.6,48.2,32,29.85,10.0,Calm,Calm,-,N/A,,Clear,0,2013-07-16 16:55:00
11:15 AM,80.6,46.4,30,29.85,10.0,SW,4.6,-,N/A,,Clear,230,2013-07-16 17:15:00
11:35 AM,82.4,46.4,28,29.84,10.0,Calm,Calm,-,N/A,,Clear,0,2013-07-16 17:35:00
11:55 AM,84.2,48.2,29,29.84,10.0,SW,3.5,-,N/A,,Clear,220,2013-07-16 17:55:00
12:15 PM,84.2,48.2,29,29.84,10.0,Calm,Calm,-,N/A,,Clear,0,2013-07-16 18:15:00
12:35 PM,86.0,50.0,29,29.83,10.0,SSW,5.8,-,N/A,,Clear,210,2013-07-16 18:35:00
12:55 PM,87.8,48.2,25,29.82,10.0,SSW,4.6,-,N/A,,Clear,200,2013-07-16 18:55:00
1:15 PM,87.8,50.0,27,29.82,10.0,SW,4.6,-,N/A,,Clear,230,2013-07-16 19:15:00
1:35 PM,89.6,51.8,27,29.80,10.0,WNW,6.9,-,N/A,,Clear,300,2013-07-16 19:35:00
1:55 PM,89.6,51.8,27,29.79,10.0,WNW,4.6,-,N/A,,Clear,290,2013-07-16 19:55:00
2:15 PM,91.4,51.8,26,29.79,10.0,North,5.8,-,N/A,,Clear,10,2013-07-16 20:15:00
2:35 PM,89.6,51.8,27,29.78,10.0,North,5.8,-,N/A,,Clear,350,2013-07-16 20:35:00
2:55 PM,93.2,53.6,26,29.78,10.0,West,8.1,-,N/A,,Clear,280,2013-07-16 20:55:00
3:15 PM,89.6,51.8,27,29.79,10.0,Calm,Calm,-,N/A,,Partly Cloudy,0,2013-07-16 21:15:00
3:35 PM,89.6,51.8,27,29.81,10.0,SSW,6.9,-,N/A,,Scattered Clouds,200,2013-07-16 21:35:00
3:55 PM,91.4,55.4,29,29.77,10.0,ENE,6.9,-,N/A,,Scattered Clouds,60,2013-07-16 21:55:00
4:15 PM,91.4,57.2,31,29.76,10.0,East,5.8,-,N/A,,Clear,80,2013-07-16 22:15:00
4:35 PM,96.8,55.4,25,29.75,10.0,ENE,5.8,-,N/A,,Clear,70,2013-07-16 22:35:00
4:55 PM,95.0,55.4,26,29.75,10.0,ESE,8.1,-,N/A,,Clear,120,2013-07-16 22:55:00
5:15 PM,95.0,55.4,26,29.75,10.0,East,8.1,-,N/A,,Clear,80,2013-07-16 23:15:00
5:35 PM,95.0,55.4,26,29.75,10.0,East,6.9,-,N/A,,Clear,80,2013-07-16 23:35:00
5:55 PM,95.0,57.2,28,29.74,10.0,ENE,8.1,-,N/A,,Clear,70,2013-07-16 23:55:00
6:15 PM,93.2,55.4,28,29.74,10.0,ENE,5.8,-,N/A,,Clear,60,2013-07-17 00:15:00
6:35 PM,93.2,59.0,32,29.73,10.0,NNE,3.5,-,N/A,,Clear,30,2013-07-17 00:35:00
6:55 PM,95.0,57.2,28,29.72,10.0,NE,6.9,-,N/A,,Clear,50,2013-07-17 00:55:00
7:15 PM,95.0,57.2,28,29.72,10.0,ENE,5.8,-,N/A,,Clear,60,2013-07-17 01:15:00
7:35 PM,96.8,57.2,27,29.72,10.0,East,8.1,-,N/A,,Clear,90,2013-07-17 01:35:00
7:55 PM,91.4,60.8,36,29.74,10.0,SE,11.5,-,N/A,,Partly Cloudy,140,2013-07-17 01:55:00
8:15 PM,91.4,51.8,26,29.75,6.0,SE,24.2,35.7,N/A,Thunderstorm,Partly Cloudy,130,2013-07-17 02:15:00
8:35 PM,89.6,51.8,27,29.75,10.0,SE,23.0,29.9,N/A,,Scattered Clouds,130,2013-07-17 02:35:00
8:55 PM,86.0,53.6,33,29.76,10.0,ESE,18.4,26.5,N/A,,Partly Cloudy,120,2013-07-17 02:55:00
9:15 PM,82.4,53.6,37,29.77,10.0,SE,10.4,-,N/A,,Clear,130,2013-07-17 03:15:00
9:35 PM,82.4,53.6,37,29.77,10.0,ESE,11.5,-,N/A,,Clear,110,2013-07-17 03:35:00
9:55 PM,80.6,53.6,39,29.77,10.0,East,10.4,-,N/A,,Clear,90,2013-07-17 03:55:00
10:15 PM,78.8,53.6,42,29.78,10.0,ESE,8.1,-,N/A,,Clear,110,2013-07-17 04:15:00
10:35 PM,80.6,53.6,39,29.79,10.0,SE,12.7,-,N/A,,Clear,140,2013-07-17 04:35:00
10:55 PM,80.6,53.6,39,29.79,10.0,SE,13.8,-,N/A,,Clear,130,2013-07-17 04:55:00
11:15 PM,80.6,53.6,39,29.80,10.0,SE,10.4,-,N/A,,Clear,130,2013-07-17 05:15:00
11:35 PM,80.6,53.6,39,29.80,10.0,SE,11.5,-,N/A,,Clear,130,2013-07-17 05:35:00
11:55 PM,80.6,51.8,37,29.82,10.0,SE,11.5,19.6,N/A,,Clear,130,2013-07-17 05:55:00